Regional Weather Roundup
Issued by NWS

Home | Current Version | Previous Version | Text Only | Print | Product List | Glossary On
Versions: 1 2 3 4 5 6 7 8 9 10 11 12 13 14 15 16 17 18 19 20 21 22 23 24 25 26 27 28 29 30 31 32 33 34 35 36 37 38 39 40 41 42 43 44 45 46 47 48 49 50
000
ASUS43 KMKX 050911
RWRWI

WISCONSIN REGIONAL WEATHER ROUNDUP
NATIONAL WEATHER SERVICE MILWAUKEE/SULLIVAN WI
400 AM CDT SUN JUL 05 2015

NOTE: "FAIR" INDICATES FEW OR NO CLOUDS BELOW 12,000 FEET WITH NO
SIGNIFICANT WEATHER AND/OR OBSTRUCTIONS TO VISIBILITY.

WIZ001-002-006>008-014>016-023>028-051000-
NORTHWEST WISCONSIN

CITY           SKY/WX    TMP DP  RH WIND       PRES   REMARKS
SUPERIOR ARPT  MOCLDY    55  53  94 E3        29.94R
ASHLAND        PTCLDY    54  54 100 CALM      29.94R
HAYWARD        CLEAR     67  62  84 SW3       29.97R HAZE
SIREN          CLEAR     66  60  80 SW5       29.95R
CUMBERLAND     CLEAR     61  59  94 CALM      29.97R FOG
RICE LAKE      CLEAR     65  61  88 CALM      29.98R FOG
CHETEK         CLEAR     65  62  88 CALM      29.97R
LADYSMITH      CLEAR     65  63  93 SE3       30.00R FOG
EAU CLAIRE     CLEAR     67  61  81 S8        29.95S
MENOMONIE      CLEAR     64  61  91 CALM      29.97R
NEW RICHMOND   CLEAR     64  58  82 S5        29.97R
OSCEOLA        CLEAR     64  63  99 CALM      29.97R
$$

WIZ003>005-009-010-017-018-051000-
NORTH CENTRAL WISCONSIN

CITY           SKY/WX    TMP DP  RH WIND       PRES   REMARKS
MANITOWISH WTR FOG       60  60 100 CALM      29.99R VSB 1/2
ARBOR VITAE    CLEAR     62  60  94 S3        29.99S FOG
WOODRUFF       CLEAR     62  60  94 S3        29.99S FOG
RHINELANDER    CLEAR     62  60  93 CALM      30.01S FOG
EAGLE RIVER      N/A     63  63 100 CALM      30.00R FOG
LAND O LAKES   FOG       59  59  99 CALM      30.01R VSB 1/4
PHILLIPS       CLEAR     63  62  97 S3        29.99R
TOMAHAWK         N/A     60  59  97 CALM      30.01R FOG
MEDFORD        CLEAR     62  61  97 S3        30.00S FOG
MERRILL          N/A     56  56 100 CALM      30.00S FOG
$$

WIZ029-030-035-036-043>047-051000-
CENTRAL WISCONSIN

CITY           SKY/WX    TMP DP  RH WIND       PRES   REMARKS
WAUSAU         CLEAR     63  61  93 S3        29.99F FOG
MOSINEE        CLEAR     63  63 100 S7        30.02S FOG
MARSHFIELD     CLEAR     62  58  86 SW5       30.01S FOG
STEVENS POINT  CLEAR     60  59  94 CALM      30.02S
WAUPACA        CLEAR     62  62  98 CALM      30.02S FOG
WAUTOMA        CLEAR     58  58 100 CALM      30.03F FOG
WISC RAPIDS    PTCLDY    64  60  87 S5        30.02S
CAMP DOUGLAS   CLEAR     59  59 100 CALM      30.01S
$$

WIZ011>013-019>022-031-037>040-048>050-051000-
NORTHEAST WISCONSIN

CITY           SKY/WX    TMP DP  RH WIND       PRES   REMARKS
ANTIGO         CLEAR     60  60 100 S3        30.02S FOG
SHAWANO        PTCLDY    66  63  88 CALM      30.00F FOG
OCONTO         PTCLDY    58  58 100 CALM      30.00F
STURGEON BAY   CLEAR     59  55  88 S6        30.04F
GREEN BAY      CLEAR     63  60  90 S3        30.01F FOG
MANITOWOC      CLEAR     58  57  97 MISG      30.03F FOG
APPLETON       CLEAR     64  61  88 SW5       30.02F
CLINTONVILLE   CLEAR     63  61  94 CALM      30.01S FOG
OSHKOSH        CLEAR     64  60  87 S8        30.02F
$$

WIZ032>034-041-042-053>061-051000-
SOUTHWEST WISCONSIN

CITY           SKY/WX    TMP DP  RH WIND       PRES   REMARKS
LA CROSSE      CLEAR     66  63  90 SE7       29.99S
SPARTA         CLEAR     55  54  95 CALM      30.01S
VIROQUA        CLEAR     64  60  85 S6        30.02F
BOSCOBEL       MOCLDY    57  56  96 CALM      30.02S FOG
PRAIRIE DU CHI CLEAR     61  58  91 CALM      30.01S
PLATTEVILLE    CLEAR     62  60  94 SE5       30.03F
$$

WIZ056-057-062-063-064-067-068-051000-
SOUTH CENTRAL WISCONSIN

CITY           SKY/WX    TMP DP  RH WIND       PRES   REMARKS
REEDSBURG      CLEAR     60  58  95 CALM      30.02S
BARABOO/DELLS  CLEAR     59  56  90 S5        30.03S
LONE ROCK      CLEAR     58  56  93 E3        30.03F
MINERAL POINT  CLEAR     63  59  88 S5        30.04S
MADISON        CLEAR     63  59  87 CALM      30.03F
MIDDLETON      CLEAR     64  61  89 S3        30.04F
WATERTOWN      CLEAR     60  60 100 CALM      30.04F
MONROE         CLEAR     63  59  88 S7        30.05S
JANESVILLE     CLEAR     61  59  94 CALM      30.04F FOG
$$

WIZ051-052-058>065-066-070>072-051000-
SOUTHEAST WISCONSIN

CITY           SKY/WX    TMP DP  RH WIND       PRES   REMARKS
MILWAUKEE      PTCLDY    66  56  70 CALM      30.05S
WAUKESHA       CLEAR     59  57  94 CALM      30.06F FOG
MILWAUKEE/TIMM CLEAR     63  55  77 CALM      30.05F
RACINE         CLEAR     60  55  83 CALM      30.07S HAZE
BURLINGTON     FOG       55  55  99 CALM      30.05F VSB 1/4
KENOSHA        CLEAR     57  55  93 CALM      30.06S FOG
FOND DU LAC    CLEAR     63  60  90 S6        30.03F
SHEBOYGAN      CLEAR     60  57  89 CALM      30.04S
WEST BEND      CLEAR     59  59 100 CALM      30.05F FOG
JUNEAU         CLEAR     62  60  94 SE6       30.05F FOG
$$

LSZ147-162-051000-
LAKE SUPERIOR

STATION/POSITION TIME  TEMP    WIND        PRES    WAVE
                       AIR SEA DIR/SP/G            HT/PER
                 (UTC) (F)     (DEG/KT/KT) (MB)    (FT/S)
W MID LAKE BUOY  0850   44 39  200/  4/  6 1013.3R   0
DEVILS ISLAND    0900   58      20/  2/  3 1013.7R
SAXON HARBOR     0840   63      CALM  /  5 1012.9R
$$

LMZ867-665-643>646-051000-
LAKE MICHIGAN

STATION/POSITION TIME  TEMP    WIND        PRES    WAVE
                       AIR SEA DIR/SP/G            HT/PER
                 (UTC) (F)     (DEG/KT/KT) (MB)    (FT/S)
CHAMBERS ISLAND  0800   65     170/  4/  7 1016.6R
S GREEN BAY BUOY 0900   68 69  180/ 10/ 12 1017.4F
N MID LAKE BUOY  0850   51 46  170/  8/  8 1017.0F   0
NORTHPORT PIER   0800   62     160/  6/ 10 1016.6S
SISTER BAY       0844   60     150/ 11/ 14   N/A
ALGOMA LAKESHORE 0841          200/  4/  5   N/A
KEWAUNEE LAKESHO 0800   62     190/  2/  5 1016.4R
SHEBOYGAN LAKESH 0900   63     170/  6/  6 1017.2F
PORT WASHINGTON  0840   63      CALM  /  1 1017.9S
ATWATER BUOY     0900   63 59  160/  4/  4 1018.6F
MILWAUKEE LAKESH 0800   68     210/  5/  5   N/A
KENOSHA   LAKESH 0900   66     230/  1/  3 1017.6
$$

TC  - TEMPERATURE IN CELSIUS
VSB - VISIBILITY IN STATUTE MILES
WCI - WIND CHILL INDEX
HX  - HEAT INDEX



USA.gov is the U.S. government's official web portal to all federal, state and local government web resources and services.